Kindakun Rocks, British Columbia

10:43 PM PDT on April 24, 2017 (GMT -0700)
Kindakun Rocks

Weather History for CWQS - January, 2013

Change the Weather History Date:

Wednesday, January 2, 2013

  Actual Average (CYZP) Record (CYZP)
Temperature  
Mean Temperature 44 °F -  
Max Temperature 46 °F 40 °F 53 °F (2001)
Min Temperature 41 °F 33 °F 21 °F (2009)
Degree Days  
Heating Degree Days 22    
Moisture  
Dew Point 41 °F    
Average Humidity 87    
Maximum Humidity 94    
Minimum Humidity 78    
Precipitation  
Precipitation 0.39 in - - ()
Sea Level Pressure  
Sea Level Pressure 29.83 in    
Wind  
Wind Speed 28 mph ()    
Max Wind Speed 43 mph    
Max Gust Speed 52 mph    
Averages and records for this station are not official NWS values.
T = Trace of Precipitation, MM = Missing Value Source: Averaged Metar Reports

Daily Weather History Graph

Daily Weather History Graph

Search for Another Location

Airport or City:

Trip Planner

Search our weather history database for the weather conditions in past years. The results will help you decide how hot, cold, wet, or windy it might be!

Date:

Astronomy

Jan. 02, 2013 Rise Set
Actual Time 9:05 AM PST 4:45 PM PST
Civil Twilight 8:23 AM PST 5:27 PM PST
Nautical Twilight 7:38 AM PST 6:12 PM PST
Astronomical Twilight 6:56 AM PST 6:54 PM PST
Moon 11:18 PM PST (1/2) 11:02 AM PST (1/2)
Length of Visible Light 9h 03m
Length of Day
7h 39m
Waning Gibbous, 74% of the Moon is Illuminated
Jan 2
Waning Gibbous
Jan 4
Last Quarter
Jan 11
New
Jan 18
First Quarter
Jan 26
Full

Hourly Weather History & Observations

Time (PST) Temp. Windchill Dew Point Humidity Pressure Visibility Wind Dir Wind Speed Gust Speed Precip Events Conditions
12:00 AM 45.7 °F 34.8 °F 41.4 °F 85% 29.86 in - South 40.3 mph 50.6 mph 0.05 in   Unknown
1:00 AM 46 °F - 42 °F 81% 29.85 in - South 41.4 mph - -  
1:00 AM 45.7 °F 34.7 °F 42.1 °F 87% 29.85 in - South 41.4 mph 50.6 mph 0.03 in   Unknown
2:00 AM 45.7 °F 35.0 °F 42.1 °F 87% 29.84 in - South 39.1 mph 49.5 mph N/A   Unknown
3:00 AM 45.5 °F 34.6 °F 42.3 °F 88% 29.83 in - South 40.3 mph 48.3 mph 0.01 in   Unknown
4:00 AM 46 °F - 43 °F 84% 29.81 in - South 39.1 mph - -  
4:00 AM 46.2 °F 35.7 °F 42.6 °F 87% 29.81 in - South 39.1 mph 51.8 mph N/A   Unknown
5:00 AM 46.4 °F 35.6 °F 42.6 °F 87% 29.81 in - South 42.6 mph 51.8 mph 0.02 in   Unknown
6:00 AM 46.2 °F 35.5 °F 42.8 °F 88% 29.78 in - South 41.4 mph 51.8 mph 0.03 in   Unknown
7:00 AM 46 °F - 43 °F 87% 29.78 in - South 35.7 mph - -  
7:00 AM 46.2 °F 36.2 °F 43.3 °F 90% 29.78 in - South 35.7 mph 48.3 mph 0.04 in   Unknown
8:00 AM 45.7 °F 35.3 °F 43.5 °F 92% 29.77 in - South 36.8 mph 48.3 mph 0.04 in   Unknown
9:00 AM 45.7 °F 35.7 °F 43.7 °F 93% 29.78 in - South 33.4 mph 41.4 mph 0.05 in   Unknown
10:00 AM 46 °F - 44 °F 89% 29.78 in - South 34.5 mph - -  
10:00 AM 45.9 °F 35.8 °F 43.9 °F 93% 29.78 in - South 34.5 mph 44.9 mph 0.06 in   Unknown
11:00 AM 46.0 °F 36.1 °F 44.1 °F 93% 29.78 in - South 34.5 mph 42.6 mph 0.05 in   Unknown
12:00 PM 46.0 °F 36.2 °F 44.2 °F 93% 29.78 in - South 33.4 mph 43.7 mph 0.05 in   Unknown
1:00 PM 46 °F - 44 °F 91% 29.76 in - South 29.9 mph - -  
1:00 PM 45.9 °F 36.4 °F 44.2 °F 94% 29.76 in - South 29.9 mph 40.3 mph 0.07 in   Unknown
2:00 PM 42.1 °F 32.6 °F 39.9 °F 92% 29.80 in - NNW 23.0 mph - 0.16 in   Unknown
3:00 PM 42.3 °F 35.1 °F 39.6 °F 90% 29.80 in - North 13.8 mph - 0.03 in   Unknown
4:00 PM 43 °F - 40 °F 85% 29.82 in - NNW 2.3 mph - -  
4:00 PM 42.8 °F - 40.1 °F 90% 29.82 in - NNW 2.3 mph - 0.02 in   Unknown
5:00 PM 43.3 °F 36.5 °F 39.9 °F 88% 29.84 in - NNE 13.8 mph - 0.02 in   Unknown
6:00 PM 42.6 °F 38.4 °F 38.7 °F 86% 29.87 in - NE 6.9 mph - N/A   Unknown
7:00 PM 43 °F - 38 °F 78% 29.89 in - NNE 10.4 mph - -  
7:00 PM 43.2 °F 37.4 °F 38.5 °F 84% 29.89 in - NNE 10.4 mph - N/A   Unknown
8:00 PM 42.6 °F 38.4 °F 36.9 °F 80% 29.91 in - ENE 6.9 mph - N/A   Unknown
9:00 PM 41.7 °F 37.3 °F 36.5 °F 82% 29.92 in - ENE 6.9 mph - N/A   Unknown
10:00 PM 41 °F - 37 °F 79% 29.94 in - NNE 3.5 mph - -  
10:00 PM 41.4 °F 39.4 °F 36.7 °F 83% 29.94 in - NNE 3.5 mph - N/A   Unknown
11:00 PM 41.5 °F - 36.7 °F 83% 29.94 in - East 2.3 mph - N/A   Unknown